AZERSPACE 2 (IS-38)

Last updated on Sat Apr 13 2024 01:02:39 GMT+0100 (British Summer Time)

1 43632U 18074A 24103.52977385 .00000128 00000+0 00000+0 0 9993 2 43632 0.0173 210.6388 0001300 164.1675 62.2298 1.00271024 20461
UTC large
Height (km)
Speed (km/s)
/
Latitude / Longitude
Inclination (degrees)
Orbital Period (minutes)
Azimuth
Elevation
Range (km)
Doppler Factor

Next 0 passes for location: London (51.5072 / 0.1276)

Sorry there are no passes over London.